Location: Augirein
(42.9320°N, 0.9181°E)
Time: 02:47:57
(UTC+00:00)

Cosmos 2237 Rocket - Pass Details

Date: 20 June 2021
Orbit: 835 x 850 km, 71.0° (Epoch: 04 August)

Event Time Altitude Azimuth Distance (km) Brightness Sun altitude
Exits shadow 00:20:06 - 259° (W) 2,626 4.6 -23.4°
Reaches altitude 10° 00:20:45 10° 264° (W) 2,445 4.5 -23.4°
Maximum altitude 00:24:50 20° 311° (NW) 1,832 4.3 -23.3°
Drops below altitude 10° 00:28:56 10° 358° (N) 2,455 5.7 -23.2°
Sets 00:32:03 0° 15° (NNE) 3,394 6.8 -23.2°
